Regional Weather Roundup
Issued by NWS State College, PA

Home | Current Version | Previous Version | Text Only | Print | Product List | Glossary On
Versions: 1 2 3 4 5 6 7 8 9 10 11 12 13 14 15 16 17 18 19 20 21 22 23 24 25 26 27 28 29 30 31 32 33 34 35 36 37 38 39 40 41 42 43 44 45 46 47 48 49 50
000
ASUS41 KCTP 192110
RWRCTP

REGIONAL WEATHER ROUNDUP
NATIONAL WEATHER SERVICE STATE COLLEGE PA
500 PM EDT SUN APR 19 2015

Note: "fair" indicates few or no clouds below 12,000 feet with no
significant weather and/or obstructions to visibility.

* = STATION THAT DOES NOT REPORT PRECIPITATION /E.G. RAIN...SNOW...ETC/
    THUNDER OR FOG.

PAZ002>004-007>009-013>016-020>023-029>032-192200-
WESTERN PENNSYLVANIA

CITY           SKY/WX    TMP DP  RH WIND       PRES   REMARKS
ERIE           CLOUDY    59  35  40 N7        29.83F
MEADVILLE      CLOUDY    70  34  26 VRB7      29.84F
FRANKLIN*      CLOUDY    66  36  32 SE20G29   29.89F
NEW CASTLE     FAIR      69  40  34 SE10G18   29.85F
BEAVER COUNTY  CLOUDY    68  41  37 SE21G30   29.85F
BUTLER*        CLOUDY    66  37  34 SE18      29.89F
PITTSBURGH INT LGT RAIN  65  44  46 S21G33    29.86F
PITTSBURGH     LGT RAIN  62  41  46 SE23G33   29.89S
INDIANA*       SUNNY     64  37  36 SE18G29   29.98S
LATROBE        PTSUNNY   64  39  39 S8        29.94F
WASHINGTON CO* CLOUDY    59  46  63 SE14G20   29.89F
$$

PAZ004>006-010>012-017>019-024>028-033>037-041-042-045-046-049>053-192200-
CENTRAL PENNSYLVANIA

CITY           SKY/WX    TMP DP  RH WIND       PRES   REMARKS
BRADFORD       CLOUDY    65  29  25 SE17G24   29.95F
DUBOIS         CLOUDY    65  31  28 SE15G26   29.94F
CLEARFIELD     CLOUDY    63  33  32 SE8G23    29.99F
JOHNSTOWN      CLOUDY    58  37  45 SE14G24   29.97S
ALTOONA        CLOUDY    60  39  45 SE14G23   30.01F
STATE COLLEGE  NOT AVBL
WILLIAMSPORT   CLOUDY    68  29  23 E10G21    30.02F
SELINSGROVE    CLOUDY    65  38  36 SE13      30.06R
FT INDIANTOWN  CLOUDY    64  39  40 S13       30.08S
CAPITAL CITY   CLOUDY    63  39  41 E13       30.08R
HARRISBURG     CLOUDY    63  39  41 SE17      30.08R
YORK           CLOUDY    62  39  42 SE13      30.09R
$$

PAZ038>040-043-044-047-048-054-055-060>062-067>071-192200-
EASTERN PENNSYLVANIA

CITY           SKY/WX    TMP DP  RH WIND       PRES   REMARKS
SCRANTON       PTSUNNY   67  23  19 S7        30.06S
MOUNT POCONO   PTSUNNY   60  25  26 SE12      30.10F
ALLENTOWN      CLOUDY    63  36  36 SE12      30.12R
QUAKERTOWN*    CLOUDY    59  36  41 SE12      30.15R
READING        CLOUDY    63  35  35 E12G22    30.09S
LANCASTER      CLOUDY    61  39  44 SE15G23   30.10R
COATESVILLE    CLOUDY    59  36  41 SE7       30.13R
POTTSTOWN      CLOUDY    59  33  37 VRB7      30.15R
BLUE BELL      CLOUDY    59  34  38 E8        30.16R
DOYLESTOWN     CLOUDY    55 N/A N/A SE10      30.15R
WILLOW GROVE   NOT AVBL
NORTH PHILA    CLOUDY    58  33  39 SE16      30.19R
PHILADELPHIA   CLOUDY    58  35  42 E15       30.17R
$$



USA.gov is the U.S. government's official web portal to all federal, state and local government web resources and services.